Regional Weather Roundup
Issued by NWS

Home | Current Version | Previous Version | Text Only | Print | Product List | Glossary Off
Versions: 1 2 3 4 5 6 7 8 9 10 11 12 13 14 15 16 17 18 19 20 21 22 23 24 25 26 27 28 29 30 31 32 33 34 35 36 37 38 39 40 41 42 43 44 45 46 47 48 49 50

000
ASUS45 KCYS 201410
RWRWY

WYOMING REGIONAL WEATHER ROUNDUP
NATIONAL WEATHER SERVICE CHEYENNE WY
800 AM MDT WED AUG 20 2014

NOTE:  "FAIR" INDICATES FEW OR NO CLOUDS BELOW 12,000 FEET
WITH NO SIGNIFICANT WEATHER AND/OR OBSTRUCTIONS TO VISIBILITY.

WYZ001-201500-
YELLOWSTONE NATIONAL PARK

CITY           SKY/WX    TMP DP  RH WIND       PRES   REMARKS
LK YELLOWSTONE   N/A     45  42  89 CALM      30.14R
W YELLOWSTONE  NOT AVBL

$$
WYZ002>013-054>058-071-098>099-201500-
NORTHERN WYOMING

CITY           SKY/WX    TMP DP  RH WIND       PRES   REMARKS
JACKSON        CLOUDY    46  46 100 CALM      30.07S FOG
CODY           CLOUDY    64  45  48 NW7       29.90R
GREYBULL       CLOUDY    65  55  70 E5        29.82R
WORLAND        CLOUDY    65  52  62 CALM      29.84R
SHERIDAN       CLOUDY    68  47  46 NW9       29.82R
BUFFALO        CLOUDY    67  47  48 N15G23    29.86R
GILLETTE       MOSUNNY   71  45  39 W15       29.80R
HULETT         FAIR      72  52  49 MISG      29.78
NEWCASTLE      FAIR      70  46  43 SE5       29.82

$$
WYZ014>020-022>026-101>103-201500-
CENTRAL WYOMING

CITY           SKY/WX    TMP DP  RH WIND       PRES   REMARKS
BIG PINEY      PTSUNNY   47  43  86 CALM      30.09R
PINEDALE       MOSUNNY   50  43  76 W6        30.09S
DUBOIS         FAIR      48  41  76 NW9       30.05R
LANDER         SUNNY     57  45  64 SE3       29.92S
RIVERTON       SUNNY     61  43  51 NW9       29.93R
CASPER         MOSUNNY   66  50  56 SW21G26   29.90R
DOUGLAS        CLOUDY    67  53  61 CALM      29.89S

$$
WYZ021-027>030-104>119-201500-
SOUTHERN WYOMING

CITY           SKY/WX    TMP DP  RH WIND       PRES   REMARKS
EVANSTON       PTSUNNY   52  51  97 S8        30.11R
KEMMERER       CLOUDY    52  45  76 CALM      30.10S
FORT BRIDGER     N/A     55  52  90 SW12      30.12S
ROCK SPRINGS   PTSUNNY   55  50  83 SW6       30.07R
DIXON          CLOUDY    58  55  90 SW7       30.10R
RAWLINS        CLOUDY    56  52  86 W6        30.04S
SARATOGA       CLOUDY    55  54  94 MISG      30.08S
LARAMIE        SUNNY     59  49  69 SW14      30.06R
CHEYENNE       MOSUNNY   66  49  54 W10       29.97S
TORRINGTON     MOSUNNY   67  55  65 NW9       29.83S
PINE BLUFFS    FAIR      63  55  77 CALM      29.92S

$$



USA.gov is the U.S. government's official web portal to all federal, state and local government web resources and services.